Location: Devore Heights
(34.2372°N, 117.4156°W)
Time: 08:49:19
(UTC+00:00)

Altair - Pass Details

Date: 16 September 2024
Orbit: 1501 x 1682 km, 47.2° (Epoch: 07 October)

Event Time Altitude Azimuth Distance (km) Brightness Sun altitude
Rises 06:59:21 0° 181° (S) 4,757 - -51.8°
Reaches altitude 10° 07:03:34 10° 165° (SSE) 3,809 - -52.1°
Maximum altitude 07:09:56 20° 123° (ESE) 3,155 - -52.5°
Drops below altitude 10° 07:16:24 10° 82° (E) 3,906 - -52.8°
Exits shadow 07:19:18 - 71° (ENE) 4,556 10.0 -52.9°
Sets 07:20:45 0° 67° (ENE) 4,917 10.3 -52.9°
